Back to Top

Language: 

My Weather Underground Personal Weather Station Historical Data with Graphs...

Delerius Weather Station Historical Data
Daily Summary for May 1, 2017 Units:  Metric    English   Both
« Previous Day
Next Day »
Daily Weekly Monthly Yearly Custom
  High: Low: Average:
Temperature: 16.2 °C 8.1 °C 11.4 °C
Dew Point: 9.3 °C 5.9 °C 7.3 °C
Humidity: 91 % 53 % 77 %
Wind Speed: 16.1 km/h 0 km/h 8 km/h
Wind Gust: 32.2 km/h - -
Wind:- - ENE
Pressure: 1015.8 hPa 1000.6 hPa -
Precipitation: 0 mm    
Historical Graphs
 
 
Tabular Data for May 1, 2017
Time Temperature Dew Point Pressure Wind Wind Speed Wind Gust Humidity Rainfall Rate (Hourly) solar Conditions
00:01 10.3 °C 6.8 °C 1000.9 hPa ENE 3.2 km/h 11.3 km/h 79 % 0 mm 0 W/m2
00:06 10.3 °C 6.8 °C 1000.9 hPa NE 4.8 km/h 11.3 km/h 79 % 0 mm 0 W/m2
00:11 10.3 °C 6.8 °C 1000.9 hPa NE 3.2 km/h 11.3 km/h 79 % 0 mm 0 W/m2
00:16 10.2 °C 6.7 °C 1000.9 hPa NE 3.2 km/h 11.3 km/h 79 % 0 mm 0 W/m2
00:21 10.2 °C 6.9 °C 1001.2 hPa NE 1.6 km/h 11.3 km/h 80 % 0 mm 0 W/m2
00:26 10.1 °C 6.8 °C 1000.9 hPa ENE 1.6 km/h 9.7 km/h 80 % 0 mm 0 W/m2
00:31 10.1 °C 6.8 °C 1000.9 hPa NE 3.2 km/h 9.7 km/h 80 % 0 mm 0 W/m2
00:36 10.1 °C 6.8 °C 1000.9 hPa NE 1.6 km/h 9.7 km/h 80 % 0 mm 0 W/m2
00:41 10.1 °C 6.8 °C 1000.9 hPa NE 1.6 km/h 9.7 km/h 80 % 0 mm 0 W/m2
00:46 10.1 °C 7 °C 1000.9 hPa North 3.2 km/h 9.7 km/h 81 % 0 mm 0 W/m2
00:51 10.1 °C 7 °C 1000.9 hPa North 1.6 km/h 9.7 km/h 81 % 0 mm 0 W/m2
00:56 10 °C 6.9 °C 1000.9 hPa NNW 1.6 km/h 6.4 km/h 81 % 0 mm 0 W/m2
01:01 9.9 °C 6.8 °C 1000.9 hPa NNW 1.6 km/h 6.4 km/h 81 % 0 mm 0 W/m2
01:06 9.9 °C 6.9 °C 1000.9 hPa NNE 3.2 km/h 9.7 km/h 82 % 0 mm 0 W/m2
01:11 9.8 °C 6.9 °C 1000.9 hPa NNE 4.8 km/h 9.7 km/h 82 % 0 mm 0 W/m2
01:16 9.8 °C 6.9 °C 1000.6 hPa NNE 4.8 km/h 9.7 km/h 82 % 0 mm 0 W/m2
01:21 9.8 °C 7.1 °C 1000.9 hPa NNE 1.6 km/h 8 km/h 83 % 0 mm 0 W/m2
01:26 9.8 °C 7.1 °C 1000.6 hPa NNE 1.6 km/h 9.7 km/h 83 % 0 mm 0 W/m2
01:31 9.8 °C 7.1 °C 1000.6 hPa North 1.6 km/h 9.7 km/h 83 % 0 mm 0 W/m2
01:36 9.8 °C 7.1 °C 1000.9 hPa Calm   6.4 km/h 83 % 0 mm 0 W/m2
01:41 9.8 °C 7.1 °C 1000.6 hPa NNE 1.6 km/h 11.3 km/h 83 % 0 mm 0 W/m2
01:46 9.8 °C 7.1 °C 1000.6 hPa NNE 3.2 km/h 11.3 km/h 83 % 0 mm 0 W/m2
01:51 9.8 °C 7.2 °C 1000.6 hPa NNE 3.2 km/h 9.7 km/h 84 % 0 mm 0 W/m2
01:56 9.8 °C 7.2 °C 1000.6 hPa NE 3.2 km/h 11.3 km/h 84 % 0 mm 0 W/m2
02:01 9.8 °C 7.2 °C 1000.6 hPa NE 4.8 km/h 11.3 km/h 84 % 0 mm 0 W/m2
02:07 9.8 °C 7.2 °C 1000.9 hPa NNE 3.2 km/h 11.3 km/h 84 % 0 mm 0 W/m2
02:12 9.8 °C 7.2 °C 1000.6 hPa Calm   6.4 km/h 84 % 0 mm 0 W/m2
02:17 9.9 °C 7.3 °C 1000.6 hPa NNW 1.6 km/h 8 km/h 84 % 0 mm 0 W/m2
02:22 9.9 °C 7.3 °C 1000.6 hPa NW 1.6 km/h 8 km/h 84 % 0 mm 0 W/m2
02:27 9.9 °C 7.3 °C 1000.6 hPa Calm   3.2 km/h 84 % 0 mm 0 W/m2
02:32 9.9 °C 7.3 °C 1000.6 hPa Calm   1.6 km/h 84 % 0 mm 0 W/m2
02:37 9.9 °C 7.5 °C 1000.6 hPa Calm   4.8 km/h 85 % 0 mm 0 W/m2
02:42 9.9 °C 7.5 °C 1000.9 hPa North 1.6 km/h 9.7 km/h 85 % 0 mm 0 W/m2
02:47 9.9 °C 7.5 °C 1000.6 hPa NNE 3.2 km/h 9.7 km/h 85 % 0 mm 0 W/m2
02:52 9.9 °C 7.5 °C 1000.6 hPa NNE 3.2 km/h 8 km/h 85 % 0 mm 0 W/m2
02:57 9.9 °C 7.5 °C 1000.6 hPa NNE 4.8 km/h 12.9 km/h 85 % 0 mm 0 W/m2
03:02 9.9 °C 7.5 °C 1000.6 hPa NNE 4.8 km/h 12.9 km/h 85 % 0 mm 0 W/m2
03:07 9.9 °C 7.5 °C 1000.6 hPa North 4.8 km/h 11.3 km/h 85 % 0 mm 0 W/m2
03:12 9.9 °C 7.5 °C 1000.6 hPa NNE 3.2 km/h 11.3 km/h 85 % 0 mm 0 W/m2
03:17 9.9 °C 7.5 °C 1000.6 hPa NNE 3.2 km/h 11.3 km/h 85 % 0 mm 0 W/m2
03:22 9.9 °C 7.3 °C 1000.6 hPa NNE 3.2 km/h 11.3 km/h 84 % 0 mm 0 W/m2
03:27 9.9 °C 7.3 °C 1000.6 hPa North 3.2 km/h 11.3 km/h 84 % 0 mm 0 W/m2
03:32 9.9 °C 7.3 °C 1000.6 hPa North 3.2 km/h 12.9 km/h 84 % 0 mm 0 W/m2
03:37 9.9 °C 7.3 °C 1000.6 hPa NNW 6.4 km/h 12.9 km/h 84 % 0 mm 0 W/m2
03:42 9.9 °C 7.3 °C 1000.6 hPa NNW 6.4 km/h 14.5 km/h 84 % 0 mm 0 W/m2
03:47 9.9 °C 7.3 °C 1000.6 hPa North 6.4 km/h 14.5 km/h 84 % 0 mm 0 W/m2
03:52 9.9 °C 7.3 °C 1000.6 hPa North 6.4 km/h 16.1 km/h 84 % 0 mm 0 W/m2
03:57 9.9 °C 7.3 °C 1000.9 hPa NNE 4.8 km/h 16.1 km/h 84 % 0 mm 0 W/m2
04:02 9.9 °C 7.3 °C 1000.9 hPa NNE 4.8 km/h 14.5 km/h 84 % 0 mm 0 W/m2
04:07 9.9 °C 7.5 °C 1000.6 hPa North 6.4 km/h 14.5 km/h 85 % 0 mm 0 W/m2
04:12 9.9 °C 7.5 °C 1000.9 hPa North 6.4 km/h 12.9 km/h 85 % 0 mm 0 W/m2
04:17 9.9 °C 7.5 °C 1000.6 hPa NNE 8 km/h 14.5 km/h 85 % 0 mm 0 W/m2
04:22 9.9 °C 7.5 °C 1000.6 hPa North 8 km/h 17.7 km/h 85 % 0 mm 0 W/m2
04:27 9.9 °C 7.5 °C 1000.6 hPa North 9.7 km/h 17.7 km/h 85 % 0 mm 0 W/m2
04:32 9.9 °C 7.5 °C 1000.6 hPa North 8 km/h 17.7 km/h 85 % 0 mm 0 W/m2
04:37 9.9 °C 7.5 °C 1000.6 hPa NNE 9.7 km/h 16.1 km/h 85 % 0 mm 0 W/m2
04:42 9.9 °C 7.5 °C 1000.6 hPa NNE 9.7 km/h 16.1 km/h 85 % 0 mm 0 W/m2
04:47 9.9 °C 7.5 °C 1000.6 hPa North 9.7 km/h 17.7 km/h 85 % 0 mm 0 W/m2
04:48 9.9 °C 7.5 °C 1000.6 hPa North 9.7 km/h 19.3 km/h 85 % 0 mm 0 W/m2
04:53 9.9 °C 7.5 °C 1000.6 hPa North 11.3 km/h 19.3 km/h 85 % 0 mm 0 W/m2
04:58 9.9 °C 7.5 °C 1000.6 hPa NNE 9.7 km/h 17.7 km/h 85 % 0 mm 0 W/m2
05:03 9.9 °C 7.5 °C 1000.9 hPa NNE 9.7 km/h 16.1 km/h 85 % 0 mm 0 W/m2
05:08 9.9 °C 7.5 °C 1000.6 hPa NNE 9.7 km/h 16.1 km/h 85 % 0 mm 0 W/m2
05:13 9.9 °C 7.5 °C 1000.6 hPa NNE 9.7 km/h 19.3 km/h 85 % 0 mm 0 W/m2
05:18 9.9 °C 7.3 °C 1000.6 hPa NNE 9.7 km/h 19.3 km/h 84 % 0 mm 0 W/m2
05:23 10 °C 7.4 °C 1000.6 hPa NNE 9.7 km/h 16.1 km/h 84 % 0 mm 0 W/m2
05:28 10 °C 7.4 °C 1000.6 hPa NNE 9.7 km/h 17.7 km/h 84 % 0 mm 0 W/m2
05:33 9.9 °C 7.3 °C 1000.9 hPa NNE 11.3 km/h 22.5 km/h 84 % 0 mm 0 W/m2
05:38 9.9 °C 7.3 °C 1000.9 hPa NE 11.3 km/h 22.5 km/h 84 % 0 mm 0 W/m2
05:43 9.9 °C 7.3 °C 1000.9 hPa NE 9.7 km/h 20.9 km/h 84 % 0 mm 0 W/m2
05:48 9.9 °C 7.3 °C 1000.9 hPa NE 9.7 km/h 20.9 km/h 84 % 0 mm 0 W/m2
05:54 9.9 °C 7.3 °C 1001.2 hPa NE 11.3 km/h 19.3 km/h 84 % 0 mm 0 W/m2
05:59 9.9 °C 7.3 °C 1001.2 hPa NE 11.3 km/h 19.3 km/h 84 % 0 mm 5 W/m2
06:04 9.8 °C 7.2 °C 1001.2 hPa NE 9.7 km/h 17.7 km/h 84 % 0 mm 7 W/m2
06:09 9.8 °C 7.2 °C 1001.6 hPa NE 9.7 km/h 17.7 km/h 84 % 0 mm 7 W/m2
06:14 9.8 °C 7.2 °C 1001.6 hPa NE 9.7 km/h 17.7 km/h 84 % 0 mm 9 W/m2
06:19 9.8 °C 7.2 °C 1001.6 hPa NNE 9.7 km/h 16.1 km/h 84 % 0 mm 9 W/m2
06:24 9.8 °C 7.2 °C 1001.6 hPa NNE 8 km/h 16.1 km/h 84 % 0 mm 11 W/m2
06:29 9.7 °C 7.1 °C 1001.6 hPa NE 8 km/h 16.1 km/h 84 % 0 mm 11 W/m2
06:34 9.7 °C 7.1 °C 1001.6 hPa NNE 8 km/h 14.5 km/h 84 % 0 mm 12 W/m2
06:39 9.7 °C 7.1 °C 1001.6 hPa NNE 9.7 km/h 17.7 km/h 84 % 0 mm 14 W/m2
06:44 9.7 °C 7.1 °C 1001.9 hPa NNE 8 km/h 17.7 km/h 84 % 0 mm 16 W/m2
06:49 9.6 °C 7 °C 1001.9 hPa NE 8 km/h 17.7 km/h 84 % 0 mm 16 W/m2
06:54 9.6 °C 7 °C 1001.9 hPa NE 9.7 km/h 17.7 km/h 84 % 0 mm 28 W/m2
06:59 9.6 °C 7.2 °C 1001.9 hPa NE 9.7 km/h 20.9 km/h 85 % 0 mm 58 W/m2
07:04 9.6 °C 7.2 °C 1001.9 hPa NE 8 km/h 20.9 km/h 85 % 0 mm 67 W/m2
07:09 9.6 °C 7.2 °C 1002.3 hPa NE 8 km/h 17.7 km/h 85 % 0 mm 77 W/m2
07:14 9.7 °C 7.3 °C 1002.3 hPa NE 8 km/h 16.1 km/h 85 % 0 mm 74 W/m2
07:19 9.7 °C 7.3 °C 1002.3 hPa NE 9.7 km/h 20.9 km/h 85 % 0 mm 74 W/m2
07:24 9.7 °C 7.3 °C 1002.3 hPa NNE 9.7 km/h 20.9 km/h 85 % 0 mm 74 W/m2
07:29 9.7 °C 7.3 °C 1002.3 hPa NE 9.7 km/h 24.1 km/h 85 % 0 mm 65 W/m2
07:34 9.8 °C 7.4 °C 1002.6 hPa NE 8 km/h 24.1 km/h 85 % 0 mm 58 W/m2
07:39 9.8 °C 7.4 °C 1002.6 hPa NE 8 km/h 17.7 km/h 85 % 0 mm 74 W/m2
07:44 9.8 °C 7.4 °C 1002.6 hPa NE 8 km/h 17.7 km/h 85 % 0 mm 91 W/m2
07:49 9.8 °C 7.4 °C 1002.3 hPa NE 8 km/h 14.5 km/h 85 % 0 mm 86 W/m2
07:54 9.8 °C 7.4 °C 1002.3 hPa NE 8 km/h 16.1 km/h 85 % 0 mm 88 W/m2
07:59 9.9 °C 7.5 °C 1002.6 hPa NE 8 km/h 19.3 km/h 85 % 0 mm 111 W/m2
08:04 9.9 °C 7.5 °C 1002.6 hPa NE 8 km/h 19.3 km/h 85 % 0 mm 148 W/m2
08:09 10.1 °C 7.7 °C 1002.6 hPa NE 6.4 km/h 17.7 km/h 85 % 0 mm 142 W/m2
08:14 10.2 °C 7.8 °C 1002.6 hPa NE 6.4 km/h 14.5 km/h 85 % 0 mm 151 W/m2
08:19 10.2 °C 7.8 °C 1002.6 hPa NE 9.7 km/h 14.5 km/h 85 % 0 mm 105 W/m2
08:24 10.3 °C 7.7 °C 1002.9 hPa NE 8 km/h 14.5 km/h 84 % 0 mm 100 W/m2
08:29 10.3 °C 7.9 °C 1002.9 hPa NE 6.4 km/h 16.1 km/h 85 % 0 mm 84 W/m2
08:34 10.3 °C 7.7 °C 1002.9 hPa NE 6.4 km/h 16.1 km/h 84 % 0 mm 121 W/m2
08:39 10.4 °C 7.8 °C 1002.9 hPa NE 8 km/h 17.7 km/h 84 % 0 mm 163 W/m2
08:44 10.5 °C 7.9 °C 1002.9 hPa NE 9.7 km/h 17.7 km/h 84 % 0 mm 113 W/m2
08:49 10.6 °C 8 °C 1002.9 hPa NE 9.7 km/h 17.7 km/h 84 % 0 mm 104 W/m2
08:54 10.6 °C 8 °C 1003.3 hPa NE 9.7 km/h 16.1 km/h 84 % 0 mm 132 W/m2
08:59 10.7 °C 8.1 °C 1003.3 hPa NE 8 km/h 17.7 km/h 84 % 0 mm 148 W/m2
09:04 10.8 °C 8.2 °C 1003.3 hPa NE 8 km/h 17.7 km/h 84 % 0 mm 207 W/m2
09:09 10.9 °C 8.3 °C 1003.3 hPa NE 8 km/h 14.5 km/h 84 % 0 mm 181 W/m2
09:14 11.1 °C 8.5 °C 1003.3 hPa ENE 6.4 km/h 16.1 km/h 84 % 0 mm 193 W/m2
09:19 11.3 °C 8.5 °C 1003.3 hPa ENE 6.4 km/h 16.1 km/h 83 % 0 mm 258 W/m2
09:24 11.4 °C 8.6 °C 1003.6 hPa NE 8 km/h 16.1 km/h 83 % 0 mm 200 W/m2
09:29 11.4 °C 8.4 °C 1003.6 hPa ENE 8 km/h 16.1 km/h 82 % 0 mm 128 W/m2
09:34 11.5 °C 8.6 °C 1003.9 hPa ENE 8 km/h 14.5 km/h 82 % 0 mm 120 W/m2
09:39 11.4 °C 8.4 °C 1003.9 hPa ENE 6.4 km/h 17.7 km/h 82 % 0 mm 97 W/m2
09:44 11.4 °C 8.4 °C 1003.9 hPa ENE 6.4 km/h 17.7 km/h 82 % 0 mm 65 W/m2
09:49 11.3 °C 8.3 °C 1003.9 hPa ENE 6.4 km/h 17.7 km/h 82 % 0 mm 49 W/m2
09:54 11.3 °C 8.3 °C 1003.9 hPa East 4.8 km/h 12.9 km/h 82 % 0 mm 39 W/m2
09:59 11.3 °C 8.5 °C 1003.9 hPa East 4.8 km/h 14.5 km/h 83 % 0 mm 56 W/m2
10:04 11.2 °C 8.4 °C 1004.3 hPa ENE 6.4 km/h 14.5 km/h 83 % 0 mm 58 W/m2
10:09 11.2 °C 8.6 °C 1004.3 hPa East 4.8 km/h 12.9 km/h 84 % 0 mm 44 W/m2
10:14 11.2 °C 8.6 °C 1004.3 hPa East 4.8 km/h 12.9 km/h 84 % 0 mm 47 W/m2
10:19 11.1 °C 8.7 °C 1004.3 hPa East 4.8 km/h 12.9 km/h 85 % 0 mm 39 W/m2
10:24 11.1 °C 8.7 °C 1004.6 hPa East 4.8 km/h 12.9 km/h 85 % 0 mm 54 W/m2
10:29 11.1 °C 8.7 °C 1004.6 hPa East 4.8 km/h 12.9 km/h 85 % 0 mm 58 W/m2
10:34 11.1 °C 8.8 °C 1004.6 hPa East 4.8 km/h 9.7 km/h 86 % 0 mm 54 W/m2
10:39 11.1 °C 8.8 °C 1004.6 hPa East 3.2 km/h 9.7 km/h 86 % 0 mm 46 W/m2
10:44 11.1 °C 8.8 °C 1005 hPa East 4.8 km/h 12.9 km/h 86 % 0 mm 40 W/m2
10:49 11.1 °C 8.8 °C 1005 hPa East 4.8 km/h 12.9 km/h 86 % 0 mm 56 W/m2
10:54 11 °C 8.9 °C 1005 hPa ESE 4.8 km/h 11.3 km/h 87 % 0 mm 127 W/m2
11:00 11 °C 8.9 °C 1005 hPa ESE 6.4 km/h 11.3 km/h 87 % 0 mm 95 W/m2
11:02 11.1 °C 9.2 °C 1005.3 hPa ESE 6.4 km/h 11.3 km/h 88 % 0 mm 84 W/m2
11:07 11.1 °C 9.2 °C 1005.3 hPa ESE 6.4 km/h 12.9 km/h 88 % 0 mm 84 W/m2
11:12 11.1 °C 9.3 °C 1005.3 hPa ESE 8 km/h 14.5 km/h 89 % 0 mm 105 W/m2
11:13 11 °C 9.3 °C 1005.3 hPa ESE 8 km/h 16.1 km/h 89 % 0 mm 109 W/m2
11:18 10.9 °C 9.2 °C 1005.6 hPa ESE 9.7 km/h 16.1 km/h 89 % 0 mm 93 W/m2
11:24 10.9 °C 9.2 °C 1005.6 hPa ESE 9.7 km/h 16.1 km/h 89 % 0 mm 113 W/m2
11:26 10.9 °C 9.2 °C 1005.6 hPa ESE 9.7 km/h 16.1 km/h 89 % 0 mm 116 W/m2
11:31 10.9 °C 9.2 °C 1005.6 hPa ESE 8 km/h 14.5 km/h 89 % 0 mm 100 W/m2
11:36 10.9 °C 9.2 °C 1006 hPa ESE 8 km/h 14.5 km/h 89 % 0 mm 67 W/m2
11:41 10.8 °C 8.9 °C 1006 hPa ESE 8 km/h 12.9 km/h 88 % 0 mm 74 W/m2
11:46 10.8 °C 8.9 °C 1006 hPa ESE 9.7 km/h 16.1 km/h 88 % 0 mm 62 W/m2
11:51 10.7 °C 8.4 °C 1006.3 hPa SE 12.9 km/h 22.5 km/h 86 % 0 mm 79 W/m2
11:56 10.7 °C 8.3 °C 1006 hPa SE 12.9 km/h 22.5 km/h 85 % 0 mm 237 W/m2
12:01 10.9 °C 8.5 °C 1006 hPa SE 8 km/h 19.3 km/h 85 % 0 mm 626 W/m2
12:06 11.3 °C 8.9 °C 1006 hPa SE 3.2 km/h 9.7 km/h 85 % 0 mm 587 W/m2
12:11 11.8 °C 8.7 °C 1006.3 hPa SE 4.8 km/h 11.3 km/h 81 % 0 mm 552 W/m2
12:16 12.2 °C 8.3 °C 1006.3 hPa SE 4.8 km/h 14.5 km/h 77 % 0 mm 540 W/m2
12:21 12.8 °C 8.5 °C 1006.3 hPa ESE 4.8 km/h 16.1 km/h 75 % 0 mm 529 W/m2
12:26 13.1 °C 8.6 °C 1006.3 hPa SE 6.4 km/h 16.1 km/h 74 % 0 mm 244 W/m2
12:31 13.2 °C 8.4 °C 1006.3 hPa ESE 4.8 km/h 12.9 km/h 73 % 0 mm 207 W/m2
12:36 13.1 °C 8.4 °C 1006.3 hPa East 4.8 km/h 11.3 km/h 73 % 0 mm 179 W/m2
12:41 13 °C 8.1 °C 1006.7 hPa ESE 6.4 km/h 12.9 km/h 72 % 0 mm 105 W/m2
12:46 12.9 °C 7.8 °C 1006.7 hPa ESE 9.7 km/h 20.9 km/h 71 % 0 mm 281 W/m2
12:51 12.9 °C 7.8 °C 1006.7 hPa SE 11.3 km/h 20.9 km/h 71 % 0 mm 399 W/m2
12:56 13.2 °C 8.1 °C 1006.7 hPa SE 9.7 km/h 19.3 km/h 71 % 0 mm 309 W/m2
13:01 13.6 °C 8.2 °C 1006.7 hPa ESE 8 km/h 14.5 km/h 70 % 0 mm 1053 W/m2
13:06 14.2 °C 8.2 °C 1006.7 hPa ESE 9.7 km/h 22.5 km/h 67 % 0 mm 976 W/m2
13:11 14.6 °C 7.4 °C 1006.7 hPa SE 11.3 km/h 22.5 km/h 62 % 0 mm 953 W/m2
13:16 14.8 °C 7.3 °C 1006.7 hPa SE 11.3 km/h 22.5 km/h 61 % 0 mm 262 W/m2
13:21 14.8 °C 7.1 °C 1006.7 hPa ESE 11.3 km/h 22.5 km/h 60 % 0 mm 274 W/m2
13:27 14.7 °C 7 °C 1006.7 hPa ESE 11.3 km/h 19.3 km/h 60 % 0 mm 251 W/m2
13:32 14.6 °C 7.4 °C 1006.7 hPa ESE 12.9 km/h 19.3 km/h 62 % 0 mm 371 W/m2
13:37 14.7 °C 7.3 °C 1006.7 hPa ESE 9.7 km/h 17.7 km/h 61 % 0 mm 299 W/m2
13:42 14.6 °C 7.4 °C 1007 hPa ESE 9.7 km/h 16.1 km/h 62 % 0 mm 276 W/m2
13:47 14.6 °C 7.4 °C 1007 hPa ESE 9.7 km/h 19.3 km/h 62 % 0 mm 359 W/m2
13:52 14.5 °C 7.6 °C 1007 hPa ESE 9.7 km/h 19.3 km/h 63 % 0 mm 489 W/m2
13:57 14.6 °C 7.4 °C 1007 hPa ESE 11.3 km/h 19.3 km/h 62 % 0 mm 997 W/m2
14:02 14.8 °C 7.6 °C 1007 hPa ESE 12.9 km/h 20.9 km/h 62 % 0 mm 986 W/m2
14:07 15.2 °C 7.9 °C 1007 hPa SE 12.9 km/h 22.5 km/h 62 % 0 mm 1100 W/m2
14:12 15.6 °C 7.8 °C 1007 hPa ESE 11.3 km/h 22.5 km/h 60 % 0 mm 654 W/m2
14:17 15.7 °C 7.7 °C 1007.3 hPa East 11.3 km/h 22.5 km/h 59 % 0 mm 1053 W/m2
14:22 15.7 °C 7.9 °C 1007.3 hPa East 12.9 km/h 25.7 km/h 60 % 0 mm 1097 W/m2
14:27 15.8 °C 7.8 °C 1007.3 hPa East 11.3 km/h 25.7 km/h 59 % 0 mm 232 W/m2
14:32 15.7 °C 7.7 °C 1007.3 hPa ENE 9.7 km/h 20.9 km/h 59 % 0 mm 287 W/m2
14:37 15.5 °C 7.8 °C 1007.3 hPa East 9.7 km/h 20.9 km/h 60 % 0 mm 976 W/m2
14:42 15.4 °C 7.7 °C 1007.3 hPa East 11.3 km/h 20.9 km/h 60 % 0 mm 373 W/m2
14:47 15.4 °C 7.7 °C 1007.3 hPa East 11.3 km/h 20.9 km/h 60 % 0 mm 1048 W/m2
14:52 15.7 °C 7.4 °C 1007.3 hPa ESE 11.3 km/h 20.9 km/h 58 % 0 mm 332 W/m2
14:57 15.7 °C 7.4 °C 1007.7 hPa East 12.9 km/h 25.7 km/h 58 % 0 mm 178 W/m2
15:02 15.4 °C 7.4 °C 1007.3 hPa East 11.3 km/h 25.7 km/h 59 % 0 mm 200 W/m2
15:07 15.3 °C 7.6 °C 1007.3 hPa East 9.7 km/h 20.9 km/h 60 % 0 mm 860 W/m2
15:12 15.7 °C 7.9 °C 1007.7 hPa East 11.3 km/h 25.7 km/h 60 % 0 mm 847 W/m2
15:17 15.5 °C 7.8 °C 1007.7 hPa East 12.9 km/h 25.7 km/h 60 % 0 mm 269 W/m2
15:22 15.3 °C 8.3 °C 1007.7 hPa East 11.3 km/h 29 km/h 63 % 0 mm 826 W/m2
15:27 15.2 °C 7.7 °C 1007.7 hPa ENE 12.9 km/h 29 km/h 61 % 0 mm 229 W/m2
15:32 15.3 °C 8.1 °C 1008 hPa ENE 14.5 km/h 29 km/h 62 % 0 mm 689 W/m2
15:37 15.3 °C 7.8 °C 1008 hPa ENE 12.9 km/h 32.2 km/h 61 % 0 mm 218 W/m2
15:43 15.2 °C 7.5 °C 1008 hPa ENE 12.9 km/h 32.2 km/h 60 % 0 mm 185 W/m2
15:48 15.3 °C 7.6 °C 1008 hPa East 14.5 km/h 32.2 km/h 60 % 0 mm 707 W/m2
15:53 15.4 °C 7.7 °C 1008 hPa East 16.1 km/h 30.6 km/h 60 % 0 mm 698 W/m2
15:58 15.8 °C 7.8 °C 1008.4 hPa East 14.5 km/h 30.6 km/h 59 % 0 mm 729 W/m2
16:03 16 °C 8 °C 1008.4 hPa East 12.9 km/h 24.1 km/h 59 % 0 mm 721 W/m2
16:08 16.1 °C 8.1 °C 1008.4 hPa East 11.3 km/h 25.7 km/h 59 % 0 mm 664 W/m2
16:13 16.2 °C 7.9 °C 1008.4 hPa East 12.9 km/h 30.6 km/h 58 % 0 mm 724 W/m2
16:18 15.9 °C 7.9 °C 1008.7 hPa East 14.5 km/h 30.6 km/h 59 % 0 mm 209 W/m2
16:23 15.6 °C 7.8 °C 1008.7 hPa ENE 14.5 km/h 25.7 km/h 60 % 0 mm 707 W/m2
16:28 15.6 °C 7.8 °C 1008.7 hPa ENE 12.9 km/h 30.6 km/h 60 % 0 mm 134 W/m2
16:33 15.4 °C 7.7 °C 1008.7 hPa ENE 12.9 km/h 30.6 km/h 60 % 0 mm 251 W/m2
16:38 15.2 °C 7.5 °C 1009 hPa East 12.9 km/h 29 km/h 60 % 0 mm 547 W/m2
16:43 15.2 °C 7.5 °C 1009 hPa ENE 14.5 km/h 30.6 km/h 60 % 0 mm 515 W/m2
16:48 15 °C 7.6 °C 1009 hPa ENE 14.5 km/h 30.6 km/h 61 % 0 mm 517 W/m2
16:53 15.1 °C 7.6 °C 1009 hPa ENE 12.9 km/h 25.7 km/h 61 % 0 mm 585 W/m2
16:58 15.4 °C 7.9 °C 1009.4 hPa ENE 11.3 km/h 22.5 km/h 61 % 0 mm 649 W/m2
17:03 15.6 °C 7.6 °C 1009.4 hPa ENE 11.3 km/h 24.1 km/h 59 % 0 mm 338 W/m2
17:08 15.3 °C 7.3 °C 1009.4 hPa ENE 12.9 km/h 30.6 km/h 59 % 0 mm 563 W/m2
17:13 15.4 °C 7.4 °C 1009.4 hPa ENE 12.9 km/h 30.6 km/h 59 % 0 mm 596 W/m2
17:18 15.3 °C 6.8 °C 1009.4 hPa ENE 14.5 km/h 29 km/h 57 % 0 mm 385 W/m2
17:23 15.2 °C 7 °C 1009.7 hPa ENE 12.9 km/h 29 km/h 58 % 0 mm 475 W/m2
17:28 15.3 °C 6.8 °C 1009.7 hPa East 9.7 km/h 25.7 km/h 57 % 0 mm 566 W/m2
17:33 15.6 °C 6.6 °C 1009.7 hPa East 11.3 km/h 32.2 km/h 55 % 0 mm 167 W/m2
17:38 15.4 °C 5.9 °C 1009.7 hPa East 11.3 km/h 32.2 km/h 53 % 0 mm 186 W/m2
17:43 15.3 °C 6.3 °C 1010 hPa East 11.3 km/h 24.1 km/h 55 % 0 mm 311 W/m2
17:48 15.1 °C 6.6 °C 1010 hPa East 12.9 km/h 24.1 km/h 57 % 0 mm 128 W/m2
17:53 14.7 °C 6.5 °C 1010 hPa East 12.9 km/h 22.5 km/h 58 % 0 mm 74 W/m2
17:58 14.3 °C 6.6 °C 1010.4 hPa East 11.3 km/h 22.5 km/h 60 % 0 mm 105 W/m2
18:04 14.1 °C 6.7 °C 1010.4 hPa East 11.3 km/h 24.1 km/h 61 % 0 mm 176 W/m2
18:09 14 °C 6.6 °C 1010.4 hPa East 11.3 km/h 24.1 km/h 61 % 0 mm 260 W/m2
18:14 14 °C 6.6 °C 1010.4 hPa East 11.3 km/h 22.5 km/h 61 % 0 mm 220 W/m2
18:19 14 °C 6.6 °C 1010.4 hPa East 9.7 km/h 24.1 km/h 61 % 0 mm 132 W/m2
18:24 13.8 °C 6.7 °C 1010.7 hPa East 9.7 km/h 24.1 km/h 62 % 0 mm 97 W/m2
18:29 13.6 °C 6.7 °C 1010.7 hPa East 11.3 km/h 29 km/h 63 % 0 mm 121 W/m2
18:34 13.4 °C 6.7 °C 1010.7 hPa East 12.9 km/h 29 km/h 64 % 0 mm 197 W/m2
18:39 13.3 °C 6.6 °C 1011.1 hPa ENE 12.9 km/h 25.7 km/h 64 % 0 mm 207 W/m2
18:44 13.2 °C 6.8 °C 1011.1 hPa ENE 12.9 km/h 25.7 km/h 65 % 0 mm 190 W/m2
18:45 13.2 °C 6.8 °C 1011.1 hPa ENE 12.9 km/h 25.7 km/h 65 % 0 mm 190 W/m2
18:50 13.1 °C 6.7 °C 1011.1 hPa East 11.3 km/h 22.5 km/h 65 % 0 mm 169 W/m2
18:55 13.1 °C 6.7 °C 1011.1 hPa ENE 11.3 km/h 22.5 km/h 65 % 0 mm 190 W/m2
19:00 13 °C 6.6 °C 1011.4 hPa ENE 12.9 km/h 25.7 km/h 65 % 0 mm 195 W/m2
19:05 12.9 °C 6.7 °C 1011.4 hPa ENE 11.3 km/h 25.7 km/h 66 % 0 mm 197 W/m2
19:10 13.1 °C 6.7 °C 1011.4 hPa ENE 9.7 km/h 20.9 km/h 65 % 0 mm 230 W/m2
19:15 13.1 °C 6.7 °C 1011.4 hPa ENE 11.3 km/h 22.5 km/h 65 % 0 mm 213 W/m2
19:20 13.1 °C 6.7 °C 1011.4 hPa ENE 11.3 km/h 22.5 km/h 65 % 0 mm 171 W/m2
19:25 12.9 °C 6.5 °C 1011.4 hPa ENE 11.3 km/h 25.7 km/h 65 % 0 mm 132 W/m2
19:30 12.8 °C 6.4 °C 1011.7 hPa East 11.3 km/h 25.7 km/h 65 % 0 mm 84 W/m2
19:31 12.8 °C 6.4 °C 1011.7 hPa East 11.3 km/h 25.7 km/h 65 % 0 mm 77 W/m2
19:36 12.4 °C 6 °C 1011.7 hPa East 11.3 km/h 24.1 km/h 65 % 0 mm 77 W/m2
19:41 12.2 °C 6.2 °C 1011.7 hPa ENE 12.9 km/h 24.1 km/h 67 % 0 mm 49 W/m2
19:46 12.1 °C 6.4 °C 1012.1 hPa East 11.3 km/h 24.1 km/h 68 % 0 mm 33 W/m2
19:51 11.9 °C 6.2 °C 1012.1 hPa East 11.3 km/h 25.7 km/h 68 % 0 mm 32 W/m2
19:56 11.7 °C 6.2 °C 1012.1 hPa East 11.3 km/h 25.7 km/h 69 % 0 mm 30 W/m2
20:01 11.4 °C 6.1 °C 1012.4 hPa East 11.3 km/h 20.9 km/h 70 % 0 mm 25 W/m2
20:06 11.3 °C 6.2 °C 1012.4 hPa East 11.3 km/h 19.3 km/h 71 % 0 mm 21 W/m2
20:11 11.1 °C 6.2 °C 1012.4 hPa East 11.3 km/h 19.3 km/h 72 % 0 mm 14 W/m2
20:16 11 °C 6.2 °C 1012.4 hPa East 9.7 km/h 19.3 km/h 72 % 0 mm 12 W/m2
20:21 10.8 °C 6.2 °C 1012.8 hPa East 8 km/h 17.7 km/h 73 % 0 mm 11 W/m2
20:26 10.7 °C 6.1 °C 1012.8 hPa East 9.7 km/h 17.7 km/h 73 % 0 mm 7 W/m2
20:28 10.7 °C 6.3 °C 1012.8 hPa East 9.7 km/h 17.7 km/h 74 % 0 mm 7 W/m2
20:33 10.6 °C 6.2 °C 1012.8 hPa East 9.7 km/h 17.7 km/h 74 % 0 mm 5 W/m2
20:38 10.5 °C 6.1 °C 1013.1 hPa East 9.7 km/h 20.9 km/h 74 % 0 mm 0 W/m2
20:43 10.3 °C 6.1 °C 1013.1 hPa East 8 km/h 20.9 km/h 75 % 0 mm 0 W/m2
20:48 10.2 °C 6.2 °C 1013.1 hPa East 6.4 km/h 19.3 km/h 76 % 0 mm 0 W/m2
20:53 10.1 °C 6.2 °C 1013.1 hPa East 8 km/h 20.9 km/h 77 % 0 mm 0 W/m2
20:58 9.9 °C 6.1 °C 1013.1 hPa ENE 8 km/h 20.9 km/h 77 % 0 mm 0 W/m2
21:03 9.8 °C 6.2 °C 1013.4 hPa ENE 8 km/h 19.3 km/h 78 % 0 mm 0 W/m2
21:08 9.7 °C 6.2 °C 1013.4 hPa ENE 6.4 km/h 16.1 km/h 79 % 0 mm 0 W/m2
21:13 9.6 °C 6.1 °C 1013.4 hPa ENE 6.4 km/h 16.1 km/h 79 % 0 mm 0 W/m2
21:18 9.5 °C 6.2 °C 1013.4 hPa ENE 6.4 km/h 16.1 km/h 80 % 0 mm 0 W/m2
21:23 9.4 °C 6.3 °C 1013.4 hPa ENE 8 km/h 16.1 km/h 81 % 0 mm 0 W/m2
21:28 9.3 °C 6.2 °C 1013.8 hPa ENE 8 km/h 17.7 km/h 81 % 0 mm 0 W/m2
21:33 9.2 °C 6.1 °C 1013.8 hPa ENE 6.4 km/h 17.7 km/h 81 % 0 mm 0 W/m2
21:38 9.1 °C 6.2 °C 1013.8 hPa ENE 3.2 km/h 12.9 km/h 82 % 0 mm 0 W/m2
21:43 9 °C 6.1 °C 1014.1 hPa ENE 4.8 km/h 12.9 km/h 82 % 0 mm 0 W/m2
21:49 8.9 °C 6 °C 1014.1 hPa ENE 4.8 km/h 16.1 km/h 82 % 0 mm 0 W/m2
21:54 8.8 °C 6.1 °C 1014.1 hPa ENE 6.4 km/h 16.1 km/h 83 % 0 mm 0 W/m2
21:59 8.7 °C 6 °C 1014.1 hPa ENE 6.4 km/h 14.5 km/h 83 % 0 mm 0 W/m2
22:04 8.7 °C 6.2 °C 1014.1 hPa ENE 6.4 km/h 12.9 km/h 84 % 0 mm 0 W/m2
22:09 8.6 °C 6.1 °C 1014.4 hPa ENE 6.4 km/h 12.9 km/h 84 % 0 mm 0 W/m2
22:14 8.6 °C 6.1 °C 1014.4 hPa ENE 4.8 km/h 14.5 km/h 84 % 0 mm 0 W/m2
22:19 8.5 °C 5.9 °C 1014.4 hPa ENE 4.8 km/h 14.5 km/h 84 % 0 mm 0 W/m2
22:24 8.4 °C 6 °C 1014.8 hPa ENE 4.8 km/h 11.3 km/h 85 % 0 mm 0 W/m2
22:29 8.3 °C 6.1 °C 1014.8 hPa ENE 4.8 km/h 11.3 km/h 86 % 0 mm 0 W/m2
22:34 8.3 °C 6.1 °C 1014.8 hPa ENE 4.8 km/h 11.3 km/h 86 % 0 mm 0 W/m2
22:39 8.2 °C 6.2 °C 1014.8 hPa ENE 4.8 km/h 12.9 km/h 87 % 0 mm 0 W/m2
22:44 8.2 °C 6.3 °C 1014.8 hPa ENE 4.8 km/h 12.9 km/h 88 % 0 mm 0 W/m2
22:49 8.1 °C 6.2 °C 1014.8 hPa ENE 3.2 km/h 9.7 km/h 88 % 0 mm 0 W/m2
22:54 8.1 °C 6.4 °C 1015.1 hPa NE 4.8 km/h 11.3 km/h 89 % 0 mm 0 W/m2
22:56 8.1 °C 6.4 °C 1015.1 hPa NE 4.8 km/h 11.3 km/h 89 % 0 mm 0 W/m2
23:01 8.2 °C 6.7 °C 1015.1 hPa NE 3.2 km/h 11.3 km/h 90 % 0 mm 0 W/m2
23:06 8.2 °C 6.7 °C 1015.1 hPa NE 4.8 km/h 14.5 km/h 90 % 0 mm 0 W/m2
23:11 8.3 °C 6.8 °C 1015.1 hPa NE 4.8 km/h 14.5 km/h 90 % 0 mm 0 W/m2
23:16 8.3 °C 6.8 °C 1015.1 hPa NE 3.2 km/h 12.9 km/h 90 % 0 mm 0 W/m2
23:21 8.3 °C 6.8 °C 1015.1 hPa ENE 3.2 km/h 11.3 km/h 90 % 0 mm 0 W/m2
23:26 8.3 °C 6.8 °C 1015.5 hPa ENE 4.8 km/h 11.3 km/h 90 % 0 mm 0 W/m2
23:31 8.3 °C 6.9 °C 1015.5 hPa NE 4.8 km/h 11.3 km/h 91 % 0 mm 0 W/m2
23:36 8.3 °C 6.9 °C 1015.5 hPa ENE 4.8 km/h 11.3 km/h 91 % 0 mm 0 W/m2
23:41 8.3 °C 6.9 °C 1015.8 hPa NE 6.4 km/h 12.9 km/h 91 % 0 mm 0 W/m2
23:46 8.3 °C 6.9 °C 1015.8 hPa NE 6.4 km/h 14.5 km/h 91 % 0 mm 0 W/m2
23:51 8.3 °C 6.8 °C 1015.8 hPa NE 6.4 km/h 14.5 km/h 90 % 0 mm 0 W/m2
23:56 8.2 °C 6.8 °C 1015.8 hPa NE 6.4 km/h 14.5 km/h 91 % 0 mm 0 W/m2
Delerius-Weather
Compliments of Weather Underground - 2.25 mb

Data updates at regular intervals.